Weather in Isyanovo

Russia / Republic of Bashkortostan     52°48′58″N   58°14′53″E
temp.,
°C
wind,
m/s
gust,
m/s
humid.,
%
clouds,
%
prec.,
mm/h
press.,
hPa
HPBL,
m
28 february, sun
sun2823:00−12e2296100 0.8 100625
02:00−13ene229699 0.4 100527
05:00−12ene2296100 0.9 100484
08:00−12ene2396100 1.0 1002104
11:00−10ene2394100 1.6 1002176
14:00−9ene2394100 0.7 1002193
17:00−9ene2395100 1.3 1003167
20:00−11ene2296100 0.8 100581
1 march, mon
mon123:00−13ne129799 1.0 100821
02:00−15ne119799 0.1 101020
05:00−14ssw119799 0.3 101220
08:00−14sw119791 0.2 101420
11:00−11ssw119192 0.3 1016229
14:00−7sw1287100 0.1 1016451
17:00−7w2392100 0.3 1017365
20:00−12w3395100 0.1 101864
2 march, tue
tue223:00−16wnw239695 0.1 101926
02:00−18wnw239784 0.0 101826
05:00−20wnw3310070 0.0 101936
08:00−22wnw3310077 0.0 101839
11:00−16w479366 0.0 1017281
14:00−11w598635 0.0 1015473
17:00−12wsw5119160 0.0 1013466
20:00−14wsw51493100 0.1 1012507
3 march, wed
wed323:00−13wsw51692100 0.1 1011583
02:00−11sw5149498 0.0 1008510
05:00−8sw6149299 0.1 1006566
08:00−7sw51393100 0.0 1004511
11:00−4sw61190100 0.0 1005676
14:00−3wsw6888100 0.1 1004794
17:00−3sw5793100 0.2 1003594
20:00−6sw339799 0.1 100373
4 march, thu
thu423:00−9wsw239695 0.1 100422
02:00−10w239684 0.0 100422
05:00−11wnw339591 0.0 100544
08:00−14wnw339689 0.0 100627
11:00−9nw4108758 0.0 1008545
14:00−7wnw69800 0.0 1009919
17:00−8w7118544 0.0 1010741
20:00−12wsw5139348 0.0 1010306